DW5425 Weather Reports


time (UTC)temp
C
wind
direction
speed
KPH
gust
KPH
rain 1hr
cm
rain 24hr
cm
rain mn
cm
humidity
%
barometer
mb
20260510033504 11 82 0.0 0.0 0.00 0.46 0.46 85 1009.7
20260510031504 12 82 0.0 0.0 0.00 0.46 0.46 83 1009.8
20260510025503 12 82 0.0 0.0 0.00 0.46 0.46 82 1009.7
20260510024003 12 82 0.0 0.0 0.00 0.46 0.46 81 1009.6
20260510023504 13 82 0.0 0.0 0.00 0.46 0.46 81 1009.6
20260510023003 13 82 0.0 1.6 0.00 0.46 0.46 80 1009.6
20260510022504 13 82 0.0 0.0 0.00 0.46 0.46 80 1009.7
20260510021503 13 82 0.0 0.0 0.00 0.46 0.46 80 1009.6
20260510020004 13 82 0.0 0.0 0.00 0.46 0.46 79 1009.5
20260510015004 13 82 0.0 0.0 0.00 0.46 0.46 79 1009.3
20260510014504 13 82 0.0 0.0 0.00 0.46 0.46 78 1009.2
20260510013504 14 82 0.0 0.0 0.00 0.46 0.46 77 1009.1
20260510013004 14 82 0.0 0.0 0.00 0.46 0.46 77 1009.0
20260510012003 14 82 0.0 3.2 0.00 0.46 0.46 76 1009.0
20260510011504 14 111 1.6 4.8 0.00 0.46 0.46 76 1008.9
20260510010504 15 114 3.2 4.8 0.00 0.46 0.46 75 1008.9
20260510010004 15 109 1.6 4.8 0.00 0.46 0.46 75 1008.7
20260510003004 15 126 1.6 9.7 0.00 0.46 0.46 72 1008.5
20260510002004 16 144 0.0 1.6 0.00 0.46 0.46 71 1008.6
20260510001504 16 144 0.0 1.6 0.00 0.46 0.46 71 1008.5
20260510001003 16 144 0.0 0.0 0.00 0.46 0.46 70 1008.4
20260510000003 16 144 1.6 4.8 0.00 0.46 0.46 69 1008.1
20260509235503 16 144 1.6 4.8 0.00 0.46 0.46 69 1008.0
20260509234004 16 140 3.2 4.8 0.00 0.46 0.46 68 1008.1
20260509233004 17 153 1.6 4.8 0.00 0.46 0.46 67 1008.1
20260509232003 17 149 0.0 1.6 0.00 0.46 0.46 68 1008.0
20260509231003 17 140 3.2 8.0 0.00 0.46 0.46 68 1008.0
20260509225003 17 165 4.8 11.3 0.00 0.46 0.46 69 1008.0
20260509223004 16 134 3.2 8.0 0.00 0.46 0.46 69 1008.1
20260509221504 16 123 3.2 11.3 0.00 0.46 0.46 70 1008.1
20260509213503 16 98 0.0 3.2 0.00 0.46 0.46 73 1008.4
20260509213003 16 101 3.2 8.0 0.00 0.46 0.46 73 1008.5
20260509212003 16 108 4.8 11.3 0.00 0.46 0.46 74 1008.6
20260509211503 16 122 3.2 11.3 0.00 0.46 0.46 74 1008.6
20260509211004 16 105 3.2 9.7 0.00 0.46 0.46 75 1008.7
20260509210004 15 154 3.2 8.0 0.00 0.46 0.46 76 1008.8
20260509205503 15 127 3.2 4.8 0.00 0.46 0.46 78 1008.8
20260509205004 15 123 0.0 1.6 0.00 0.46 0.46 78 1008.9
20260509204504 15 123 1.6 8.0 0.00 0.46 0.46 79 1009.0
20260509202503 14 344 1.6 4.8 0.00 0.46 0.46 81 1009.3
20260509201004 14 331 3.2 4.8 0.00 0.46 0.46 81 1009.2
20260509200503 14 326 3.2 4.8 0.00 0.46 0.46 81 1009.0
20260509200004 14 0 3.2 4.8 0.00 0.46 0.46 81 1008.8
20260509195003 14 51 1.6 4.8 0.00 0.46 0.46 80 1008.8
20260509194503 15 36 1.6 8.0 0.00 0.46 0.46 80 1009.0
20260509193003 15 340 0.0 3.2 0.00 0.46 0.46 77 1009.3
20260509192505 15 21 1.6 4.8 0.00 0.46 0.46 78 1009.1
20260509191503 15 100 1.6 4.8 0.00 0.46 0.46 75 1009.2
20260509185504 15 53 1.6 4.8 0.00 0.46 0.46 78 1009.6
20260509185004 15 259 1.6 3.2 0.00 0.46 0.46 79 1009.9
20260509184504 15 259 0.0 1.6 0.00 0.46 0.46 80 1009.9
20260509183503 15 259 1.6 3.2 0.00 0.46 0.46 81 1010.1
20260509181504 14 189 0.0 1.6 0.00 0.46 0.46 85 1010.0
20260509180503 13 121 1.6 4.8 0.00 0.46 0.46 84 1009.8
20260509180004 13 165 0.0 1.6 0.00 0.46 0.46 86 1009.7
20260509175503 13 165 0.0 1.6 0.00 0.46 0.46 86 1009.8
20260509175004 13 165 0.0 3.2 0.00 0.46 0.46 87 1010.0
20260509174004 12 165 0.0 3.2 0.00 0.46 0.46 86 1010.1
20260509173003 12 186 0.0 3.2 0.00 0.46 0.46 87 1010.3
20260509170504 12 138 0.0 1.6 0.03 0.46 0.46 87 1010.6
20260509165503 12 146 0.0 3.2 0.05 0.46 0.46 88 1010.6
20260509165003 12 137 3.2 4.8 0.05 0.46 0.46 87 1010.7
20260509164504 12 161 0.0 3.2 0.08 0.46 0.46 88 1010.7
20260509163504 12 161 1.6 4.8 0.10 0.46 0.46 87 1010.7
20260509163004 12 162 3.2 4.8 0.15 0.46 0.46 87 1010.6
20260509161003 11 97 3.2 9.7 0.25 0.43 0.43 87 1010.0
20260509160504 11 112 3.2 9.7 0.28 0.43 0.43 86 1009.9
20260509160004 11 23 3.2 4.8 0.30 0.41 0.41 87 1009.8
20260509154503 11 76 0.0 3.2 0.33 0.38 0.38 86 1010.4
20260509154003 11 105 0.0 3.2 0.30 0.36 0.36 85 1010.7
20260509152504 11 157 0.0 3.2 0.25 0.28 0.28 84 1011.3
20260509151004 11 157 0.0 4.8 0.18 0.18 0.18 83 1011.5
20260509150504 12 155 0.0 1.6 0.15 0.15 0.15 82 1011.4
20260509150003 12 155 1.6 4.8 0.10 0.10 0.10 82 1011.3
20260509145504 12 171 0.0 3.2 0.10 0.10 0.10 82 1011.2
20260509145004 12 172 0.0 0.0 0.08 0.08 0.08 81 1011.2
20260509144003 12 164 0.0 3.2 0.05 0.05 0.05 80 1011.1
20260509143003 12 164 0.0 0.0 0.05 0.05 0.05 80 1010.8
20260509142503 12 164 0.0 0.0 0.03 0.03 0.03 78 1010.9
20260509142004 12 164 0.0 8.0 0.00 0.00 0.00 77 1010.9
20260509135504 12 140 1.6 4.8 0.00 0.00 0.00 73 1010.6
20260509134503 12 265 1.6 4.8 0.00 0.00 0.00 73 1010.7
20260509134003 12 247 0.0 3.2 0.00 0.00 0.00 74 1010.7
20260509133504 12 138 0.0 0.0 0.00 0.00 0.00 74 1010.6
20260509133004 12 138 0.0 4.8 0.00 0.00 0.00 75 1010.6
20260509132504 12 109 1.6 8.0 0.00 0.00 0.00 75 1010.6
20260509132003 12 158 1.6 4.8 0.00 0.00 0.00 75 1010.5
20260509130504 12 156 0.0 1.6 0.00 0.00 0.00 77 1010.4
20260509130004 12 154 0.0 3.2 0.00 0.00 0.00 78 1010.3
20260509125003 12 37 0.0 0.0 0.00 0.00 0.00 77 1010.1
20260509124504 12 37 0.0 0.0 0.00 0.00 0.00 77 1010.0
20260509123503 12 315 1.6 4.8 0.00 0.00 0.00 77 1009.9
20260509123004 12 4 1.6 4.8 0.00 0.00 0.00 77 1010.0
20260509122504 12 5 3.2 4.8 0.00 0.00 0.00 76 1010.3
20260509122003 12 5 0.0 1.6 0.00 0.00 0.00 76 1010.5
20260509121503 12 5 0.0 1.6 0.00 0.00 0.00 75 1010.7
20260509120504 12 5 0.0 0.0 0.00 0.00 0.00 76 1010.7
20260509120003 12 5 0.0 0.0 0.00 0.00 0.00 76 1010.6
20260509115004 12 5 0.0 0.0 0.00 0.00 0.00 76 1010.3
20260509113504 11 55 0.0 4.8 0.00 0.00 0.00 76 1010.1
20260509113004 11 61 1.6 4.8 0.00 0.00 0.00 76 1010.3
20260509112003 11 272 3.2 4.8 0.00 0.00 0.00 76 1010.3
20260509111503 11 256 1.6 4.8 0.00 0.00 0.00 76 1010.1
20260509111005 11 256 0.0 3.2 0.00 0.00 0.00 75 1010.1
20260509110004 11 302 0.0 0.0 0.00 0.00 0.00 75 1009.9
20260509102003 11 134 0.0 0.0 0.00 0.00 0.00 74 1009.8
20260509095504 11 134 0.0 4.8 0.00 0.00 0.00 74 1009.7
20260509095003 11 44 0.0 4.8 0.00 0.00 0.00 74 1009.6
20260509094504 11 96 1.6 4.8 0.00 0.00 0.00 74 1009.6
20260509092003 11 102 3.2 9.7 0.00 0.00 0.00 73 1009.7
20260509091504 11 100 6.4 12.9 0.00 0.00 0.00 73 1009.8
20260509090503 12 103 4.8 9.7 0.00 0.00 0.00 72 1009.7
20260509084004 12 100 1.6 4.8 0.00 0.00 0.00 71 1009.9
20260509081504 12 108 3.2 4.8 0.00 0.00 0.00 71 1010.1
20260509081004 12 101 1.6 8.0 0.00 0.00 0.00 71 1010.0
20260509074504 12 88 0.0 4.8 0.00 0.00 0.00 69 1010.1
20260509074004 12 52 1.6 3.2 0.00 0.00 0.00 69 1010.1
20260509073505 12 119 0.0 3.2 0.00 0.00 0.00 69 1010.2
20260509072503 12 91 1.6 3.2 0.00 0.00 0.00 70 1010.3
20260509072003 12 105 0.0 4.8 0.00 0.00 0.00 70 1010.2
20260509071504 12 48 0.0 1.6 0.00 0.00 0.00 70 1010.3
20260509065003 12 30 0.0 3.2 0.00 0.00 0.00 69 1010.5
20260509064004 12 22 0.0 1.6 0.00 0.00 0.00 69 1010.6
20260509063004 12 22 0.0 0.0 0.00 0.00 0.00 68 1010.7
20260509062003 12 44 0.0 1.6 0.00 0.00 0.00 68 1010.7
20260509061504 12 25 0.0 3.2 0.00 0.00 0.00 69 1010.7
20260509061003 12 52 3.2 8.0 0.00 0.00 0.00 69 1010.7
20260509060503 12 16 3.2 9.7 0.00 0.00 0.00 69 1010.6
20260509060004 12 356 1.6 8.0 0.00 0.00 0.00 70 1010.6
20260509055504 12 25 3.2 4.8 0.00 0.00 0.00 70 1010.6
20260509054504 12 26 3.2 8.0 0.00 0.00 0.00 71 1010.7
20260509053003 12 39 1.6 4.8 0.00 0.00 0.00 71 1010.7
20260509052503 13 42 0.0 3.2 0.00 0.00 0.00 71 1010.7
20260509052004 13 17 0.0 1.6 0.00 0.00 0.00 72 1010.7
20260509051504 13 9 0.0 3.2 0.00 0.00 0.00 72 1010.8
20260509051003 13 31 0.0 1.6 0.00 0.00 0.00 71 1010.8
20260509050004 13 94 0.0 1.6 0.00 0.00 0.00 70 1011.0
20260509044504 13 116 0.0 1.6 0.00 0.00 0.00 68 1011.1
20260509043504 13 116 0.0 1.6 0.00 0.00 0.00 67 1011.1
20260509043004 13 116 0.0 0.0 0.00 0.00 0.00 65 1011.2
20260509042504 13 116 0.0 0.0 0.00 0.00 0.00 64 1011.2
20260509041503 13 116 0.0 0.0 0.00 0.00 0.00 64 1011.1
20260509041003 13 116 0.0 1.6 0.00 0.00 0.00 64 1011.1
20260509034504 13 116 0.0 1.6 0.00 0.00 0.00 63 1011.1